"Time","Value","Approval","myLocation"
"2023-03-29 00:00",8.68644807630651,"Approved","OW293"
"2023-03-29 01:00",8.68054203270279,"Approved","OW293"
"2023-03-29 02:00",8.67523598909907,"Approved","OW293"
"2023-03-29 03:00",8.66992994549535,"Approved","OW293"
"2023-03-29 04:00",8.66532390189163,"Approved","OW293"
"2023-03-29 05:00",8.67561785828791,"Approved","OW293"
"2023-03-29 06:00",8.66641181468419,"Approved","OW293"
"2023-03-29 07:00",8.66340577108047,"Approved","OW293"
"2023-03-29 08:00",8.67469972747675,"Approved","OW293"
"2023-03-29 09:00",8.67879368387304,"Approved","OW293"
"2023-03-29 10:00",8.67328764026932,"Approved","OW293"
"2023-03-29 11:00",8.6682815966656,"Approved","OW293"
"2023-03-29 12:00",8.66737555306188,"Approved","OW293"
"2023-03-29 13:00",8.66966950945816,"Approved","OW293"
"2023-03-29 14:00",8.66676346585444,"Approved","OW293"
"2023-03-29 15:00",8.66445742225072,"Approved","OW293"
"2023-03-29 16:00",8.666251378647,"Approved","OW293"
"2023-03-29 17:00",8.66434533504328,"Approved","OW293"
"2023-03-29 18:00",8.68003929143956,"Approved","OW293"
"2023-03-29 19:00",8.67423324783585,"Approved","OW293"
"2023-03-29 20:00",8.68302720423213,"Approved","OW293"
"2023-03-29 21:00",8.67342116062841,"Approved","OW293"
"2023-03-29 22:00",8.66761511702469,"Approved","OW293"
"2023-03-29 23:00",8.68080907342097,"Approved","OW293"
"2023-03-30 00:00",8.67030302981725,"Approved","OW293"
"2023-03-30 01:00",8.66349698621353,"Approved","OW293"
"2023-03-30 02:00",8.66359094260981,"Approved","OW293"
"2023-03-30 03:00",8.65588489900609,"Approved","OW293"
"2023-03-30 04:00",8.65067885540237,"Approved","OW293"
"2023-03-30 05:00",8.65787281179865,"Approved","OW293"
"2023-03-30 06:00",8.64886676819493,"Approved","OW293"
"2023-03-30 07:00",8.64936072459122,"Approved","OW293"
"2023-03-30 08:00",8.6520546809875,"Approved","OW293"
"2023-03-30 09:00",8.64964863738378,"Approved","OW293"
"2023-03-30 10:00",8.65844259378006,"Approved","OW293"
"2023-03-30 11:00",8.65573655017634,"Approved","OW293"
"2023-03-30 12:00",8.65383050657262,"Approved","OW293"
"2023-03-30 13:00",8.6480244629689,"Approved","OW293"
"2023-03-30 14:00",8.64301841936518,"Approved","OW293"
"2023-03-30 15:00",8.63791237576146,"Approved","OW293"
"2023-03-30 16:00",8.63800633215774,"Approved","OW293"
"2023-03-30 17:00",8.63370028855402,"Approved","OW293"
"2023-03-30 18:00",8.63599424495031,"Approved","OW293"
"2023-03-30 19:00",8.63128820134659,"Approved","OW293"
"2023-03-30 20:00",8.65038215774287,"Approved","OW293"
"2023-03-30 21:00",8.65197611413915,"Approved","OW293"
"2023-03-30 22:00",8.64157007053543,"Approved","OW293"
"2023-03-30 23:00",8.63466402693171,"Approved","OW293"
"2023-03-31 00:00",8.62965798332799,"Approved","OW293"
"2023-03-31 01:00",8.62585193972427,"Approved","OW293"
"2023-03-31 02:00",8.62174589612055,"Approved","OW293"
"2023-03-31 03:00",8.61833985251683,"Approved","OW293"
"2023-03-31 04:00",8.61753380891311,"Approved","OW293"
"2023-03-31 05:00",8.6343277653094,"Approved","OW293"
"2023-03-31 06:00",8.62492172170568,"Approved","OW293"
"2023-03-31 07:00",8.62021567810195,"Approved","OW293"
"2023-03-31 08:00",8.62400963449824,"Approved","OW293"
"2023-03-31 09:00",8.61960359089452,"Approved","OW293"
"2023-03-31 10:00",8.6341975472908,"Approved","OW293"
"2023-03-31 11:00",8.63279150368708,"Approved","OW293"
"2023-03-31 12:00",8.62548546008336,"Approved","OW293"
"2023-03-31 13:00",8.62147941647964,"Approved","OW293"
"2023-03-31 14:00",8.62607337287592,"Approved","OW293"
"2023-03-31 15:00",8.6352673292722,"Approved","OW293"
"2023-03-31 16:00",8.64556128566848,"Approved","OW293"
"2023-03-31 17:00",8.66955524206476,"Approved","OW293"
"2023-03-31 18:00",8.68514919846104,"Approved","OW293"
"2023-03-31 19:00",8.67164315485733,"Approved","OW293"
"2023-03-31 20:00",8.66123711125361,"Approved","OW293"
"2023-03-31 21:00",8.66843106764989,"Approved","OW293"
"2023-03-31 22:00",8.65782502404617,"Approved","OW293"
"2023-03-31 23:00",8.66061898044245,"Approved","OW293"
"2023-04-01 00:00",8.65031293683873,"Approved","OW293"
"2023-04-01 01:00",8.64470689323501,"Approved","OW293"
"2023-04-01 02:00",8.63590084963129,"Approved","OW293"
"2023-04-01 03:00",8.63099480602757,"Approved","OW293"
"2023-04-01 04:00",8.62738876242385,"Approved","OW293"
"2023-04-01 05:00",8.64408271882014,"Approved","OW293"
"2023-04-01 06:00",8.63517667521642,"Approved","OW293"
"2023-04-01 07:00",8.6334706316127,"Approved","OW293"
"2023-04-01 08:00",8.62936458800898,"Approved","OW293"
"2023-04-01 09:00",8.63545854440526,"Approved","OW293"
"2023-04-01 10:00",8.62995250080154,"Approved","OW293"
"2023-04-01 11:00",8.63074645719782,"Approved","OW293"
"2023-04-01 12:00",8.6282404135941,"Approved","OW293"
"2023-04-01 13:00",8.62953436999038,"Approved","OW293"
"2023-04-01 14:00",8.62432832638666,"Approved","OW293"
"2023-04-01 15:00",8.62792228278294,"Approved","OW293"
"2023-04-01 16:00",8.62341623917922,"Approved","OW293"
"2023-04-01 17:00",8.6208101955755,"Approved","OW293"
"2023-04-01 18:00",8.62520415197179,"Approved","OW293"
"2023-04-01 19:00",8.62379810836807,"Approved","OW293"
"2023-04-01 20:00",8.62369206476435,"Approved","OW293"
"2023-04-01 21:00",8.63638602116063,"Approved","OW293"
"2023-04-01 22:00",8.63297997755691,"Approved","OW293"
"2023-04-01 23:00",8.64987393395319,"Approved","OW293"
"2023-04-02 00:00",8.64076789034947,"Approved","OW293"
"2023-04-02 01:00",8.63586184674575,"Approved","OW293"
"2023-04-02 02:00",8.63385580314203,"Approved","OW293"
"2023-04-02 03:00",8.63134975953831,"Approved","OW293"
"2023-04-02 04:00",8.63314371593459,"Approved","OW293"
"2023-04-02 05:00",8.62993767233088,"Approved","OW293"
"2023-04-02 06:00",8.62863162872716,"Approved","OW293"
"2023-04-02 07:00",8.66182558512344,"Approved","OW293"
"2023-04-02 08:00",8.66281954151972,"Approved","OW293"
"2023-04-02 09:00",8.663013497916,"Approved","OW293"
"2023-04-02 10:00",8.65750745431228,"Approved","OW293"
"2023-04-02 11:00",8.65870141070856,"Approved","OW293"
"2023-04-02 12:00",8.66399536710484,"Approved","OW293"
"2023-04-02 13:00",8.65598932350112,"Approved","OW293"
"2023-04-02 14:00",8.6501832798974,"Approved","OW293"
"2023-04-02 15:00",8.64887723629368,"Approved","OW293"
"2023-04-02 16:00",8.65247119268997,"Approved","OW293"
"2023-04-02 17:00",8.65466514908625,"Approved","OW293"
"2023-04-02 18:00",8.66305910548253,"Approved","OW293"
"2023-04-02 19:00",8.67165306187881,"Approved","OW293"
"2023-04-02 20:00",8.69174701827509,"Approved","OW293"
"2023-04-02 21:00",8.68524097467137,"Approved","OW293"
"2023-04-02 22:00",8.69763493106765,"Approved","OW293"
"2023-04-02 23:00",8.68722888746393,"Approved","OW293"
"2023-04-03 00:00",8.68142284386021,"Approved","OW293"
"2023-04-03 01:00",8.67581680025649,"Approved","OW293"
"2023-04-03 02:00",8.67161075665277,"Approved","OW293"
"2023-04-03 03:00",8.66750471304906,"Approved","OW293"
"2023-04-03 04:00",8.66439866944533,"Approved","OW293"
"2023-04-03 05:00",8.68469262584162,"Approved","OW293"
"2023-04-03 06:00",8.6730865822379,"Approved","OW293"
"2023-04-03 07:00",8.67108053863418,"Approved","OW293"
"2023-04-03 08:00",8.66887449503046,"Approved","OW293"
"2023-04-03 09:00",8.66766845142674,"Approved","OW293"
"2023-04-03 10:00",8.67096240782302,"Approved","OW293"
"2023-04-03 11:00",8.6720563642193,"Approved","OW293"
"2023-04-03 12:00",8.67705032061558,"Approved","OW293"
"2023-04-03 13:00",8.67964427701186,"Approved","OW293"
"2023-04-03 14:00",8.67733823340815,"Approved","OW293"
"2023-04-03 15:00",8.67313218980442,"Approved","OW293"
"2023-04-03 16:00",8.6678261462007,"Approved","OW293"
"2023-04-03 17:00",8.66642010259699,"Approved","OW293"
"2023-04-03 18:00",8.66871405899327,"Approved","OW293"
"2023-04-03 19:00",8.66980801538955,"Approved","OW293"
"2023-04-03 20:00",8.66920197178583,"Approved","OW293"
"2023-04-03 21:00",8.68229592818211,"Approved","OW293"
"2023-04-03 22:00",8.68628988457839,"Approved","OW293"
"2023-04-03 23:00",8.68598384097467,"Approved","OW293"
"2023-04-04 00:00",8.68017779737095,"Approved","OW293"
"2023-04-04 01:00",8.67537175376723,"Approved","OW293"
"2023-04-04 02:00",8.67036571016351,"Approved","OW293"
"2023-04-04 03:00",8.66745966655979,"Approved","OW293"
"2023-04-04 04:00",8.66215362295608,"Approved","OW293"
"2023-04-04 05:00",8.67254757935236,"Approved","OW293"
"2023-04-04 06:00",8.67224153574864,"Approved","OW293"
"2023-04-04 07:00",8.67113549214492,"Approved","OW293"
"2023-04-04 08:00",8.6765294485412,"Approved","OW293"
"2023-04-04 09:00",8.67982340493748,"Approved","OW293"
"2023-04-04 10:00",8.67921736133376,"Approved","OW293"
"2023-04-04 11:00",8.68281131773004,"Approved","OW293"
"2023-04-04 12:00",8.69200527412632,"Approved","OW293"
"2023-04-04 13:00",8.6922992305226,"Approved","OW293"
"2023-04-04 14:00",8.68219318691888,"Approved","OW293"
"2023-04-04 15:00",8.67828714331517,"Approved","OW293"
"2023-04-04 16:00",8.67488109971145,"Approved","OW293"
"2023-04-04 17:00",8.67327505610773,"Approved","OW293"
"2023-04-04 18:00",8.66996901250401,"Approved","OW293"
"2023-04-04 19:00",8.66526296890029,"Approved","OW293"
"2023-04-04 20:00",8.68465692529657,"Approved","OW293"
"2023-04-04 21:00",8.67315088169285,"Approved","OW293"
"2023-04-04 22:00",8.67714483808913,"Approved","OW293"
"2023-04-04 23:00",8.67433879448541,"Approved","OW293"
"2023-04-05 00:00",8.66783275088169,"Approved","OW293"
"2023-04-05 01:00",8.66292670727797,"Approved","OW293"
"2023-04-05 02:00",8.65702066367425,"Approved","OW293"
"2023-04-05 03:00",8.65591462007054,"Approved","OW293"
"2023-04-05 04:00",8.65170857646681,"Approved","OW293"
"2023-04-05 05:00",8.6471025328631,"Approved","OW293"
"2023-04-05 06:00",8.64339648925938,"Approved","OW293"
"2023-04-05 07:00",8.64229044565566,"Approved","OW293"
"2023-04-05 08:00",8.64628440205194,"Approved","OW293"
"2023-04-05 09:00",8.64607835844822,"Approved","OW293"
"2023-04-05 10:00",8.6423723148445,"Approved","OW293"
"2023-04-05 11:00",8.64366627124078,"Approved","OW293"
"2023-04-05 12:00",8.64466022763706,"Approved","OW293"
"2023-04-05 13:00",8.63965418403335,"Approved","OW293"
"2023-04-05 14:00",8.63404814042963,"Approved","OW293"
"2023-04-05 15:00",8.6339420968259,"Approved","OW293"
"2023-04-05 16:00",8.62793605322219,"Approved","OW293"
"2023-04-05 17:00",8.62233000961847,"Approved","OW293"
"2023-04-05 18:00",8.62352396601475,"Approved","OW293"
"2023-04-05 19:00",8.62501792241103,"Approved","OW293"
"2023-04-05 20:00",8.63971187880731,"Approved","OW293"
"2023-04-05 21:00",8.63390583520359,"Approved","OW293"
"2023-04-05 22:00",8.64749979159987,"Approved","OW293"
"2023-04-05 23:00",8.64009374799615,"Approved","OW293"
"2023-04-06 00:00",8.63418770439243,"Approved","OW293"
"2023-04-06 01:00",8.62868166078871,"Approved","OW293"
"2023-04-06 02:00",8.624375617185,"Approved","OW293"
"2023-04-06 03:00",8.61786957358128,"Approved","OW293"
"2023-04-06 04:00",8.62106352997756,"Approved","OW293"
"2023-04-06 05:00",8.62925748637384,"Approved","OW293"
"2023-04-06 06:00",8.61825144277012,"Approved","OW293"
"2023-04-06 07:00",8.6153453991664,"Approved","OW293"
"2023-04-06 08:00",8.61583935556268,"Approved","OW293"
"2023-04-06 09:00",8.63333331195896,"Approved","OW293"
"2023-04-06 10:00",8.63262726835524,"Approved","OW293"
"2023-04-06 11:00",8.64092122475152,"Approved","OW293"
"2023-04-06 12:00",8.6412151811478,"Approved","OW293"
"2023-04-06 13:00",8.63650913754408,"Approved","OW293"
"2023-04-06 14:00",8.63340309394037,"Approved","OW293"
"2023-04-06 15:00",8.62489705033665,"Approved","OW293"
"2023-04-06 16:00",8.62179100673293,"Approved","OW293"
"2023-04-06 17:00",8.62088496312921,"Approved","OW293"
"2023-04-06 18:00",8.62457891952549,"Approved","OW293"
"2023-04-06 19:00",8.61787287592177,"Approved","OW293"
"2023-04-06 20:00",8.63356683231805,"Approved","OW293"
"2023-04-06 21:00",8.63366078871433,"Approved","OW293"
"2023-04-06 22:00",8.63175474511061,"Approved","OW293"
"2023-04-06 23:00",8.62244870150689,"Approved","OW293"
"2023-04-07 00:00",8.61584265790317,"Approved","OW293"
"2023-04-07 01:00",8.60993661429946,"Approved","OW293"
"2023-04-07 02:00",8.60443057069574,"Approved","OW293"
"2023-04-07 03:00",8.59952452709202,"Approved","OW293"
"2023-04-07 04:00",8.6136184834883,"Approved","OW293"
"2023-04-07 05:00",8.61061243988458,"Approved","OW293"
"2023-04-07 06:00",8.60160639628086,"Approved","OW293"
"2023-04-07 07:00",8.60100035267714,"Approved","OW293"
"2023-04-07 08:00",8.60169430907342,"Approved","OW293"
"2023-04-07 09:00",8.6031882654697,"Approved","OW293"
"2023-04-07 10:00",8.60528222186598,"Approved","OW293"
"2023-04-07 11:00",8.60787617826226,"Approved","OW293"
"2023-04-07 12:00",8.61417013465854,"Approved","OW293"
"2023-04-07 13:00",8.61706409105483,"Approved","OW293"
"2023-04-07 14:00",8.61535804745111,"Approved","OW293"
"2023-04-07 15:00",8.61275200384739,"Approved","OW293"
"2023-04-07 16:00",8.61234596024367,"Approved","OW293"
"2023-04-07 17:00",8.60853991663995,"Approved","OW293"
"2023-04-07 18:00",8.60233387303623,"Approved","OW293"
"2023-04-07 19:00",8.60242782943251,"Approved","OW293"
"2023-04-07 20:00",8.61962178582879,"Approved","OW293"
"2023-04-07 21:00",8.62341574222507,"Approved","OW293"
"2023-04-07 22:00",8.61800969862135,"Approved","OW293"
"2023-04-07 23:00",8.61200365501763,"Approved","OW293"
"2023-04-08 00:00",8.61109761141392,"Approved","OW293"
"2023-04-08 01:00",8.6088915678102,"Approved","OW293"
"2023-04-08 02:00",8.60478552420648,"Approved","OW293"
"2023-04-08 03:00",8.60247948060276,"Approved","OW293"
"2023-04-08 04:00",8.59807343699904,"Approved","OW293"
"2023-04-08 05:00",8.60736739339532,"Approved","OW293"
"2023-04-08 06:00",8.6009613497916,"Approved","OW293"
"2023-04-08 07:00",8.60015530618788,"Approved","OW293"
"2023-04-08 08:00",8.60954926258416,"Approved","OW293"
"2023-04-08 09:00",8.61334321898044,"Approved","OW293"
"2023-04-08 10:00",8.60863717537672,"Approved","OW293"
"2023-04-08 11:00",8.605531131773,"Approved","OW293"
"2023-04-08 12:00",8.61002508816929,"Approved","OW293"
"2023-04-08 13:00",8.61631904456557,"Approved","OW293"
"2023-04-08 14:00",8.61191300096185,"Approved","OW293"
"2023-04-08 15:00",8.61080695735813,"Approved","OW293"
"2023-04-08 16:00",8.60690091375441,"Approved","OW293"
"2023-04-08 17:00",8.60299487015069,"Approved","OW293"
"2023-04-08 18:00",8.61508882654697,"Approved","OW293"
"2023-04-08 19:00",8.60958278294325,"Approved","OW293"
"2023-04-08 20:00",8.60857673933953,"Approved","OW293"
"2023-04-08 21:00",8.60657069573581,"Approved","OW293"
"2023-04-08 22:00",8.61646465213209,"Approved","OW293"
"2023-04-08 23:00",8.61065860852837,"Approved","OW293"
"2023-04-09 00:00",8.60665256492466,"Approved","OW293"
"2023-04-09 01:00",8.60094652132094,"Approved","OW293"
"2023-04-09 02:00",8.59864047771722,"Approved","OW293"
"2023-04-09 03:00",8.5960344341135,"Approved","OW293"
"2023-04-09 04:00",8.59152839050978,"Approved","OW293"
"2023-04-09 05:00",8.58722234690606,"Approved","OW293"
"2023-04-09 06:00",8.58931630330234,"Approved","OW293"
"2023-04-09 07:00",8.60941025969862,"Approved","OW293"
"2023-04-09 08:00",8.6460042160949,"Approved","OW293"
"2023-04-09 09:00",8.63819817249118,"Approved","OW293"
"2023-04-09 10:00",8.62159212888746,"Approved","OW293"
"2023-04-09 11:00",8.65238608528374,"Approved","OW293"
"2023-04-09 12:00",8.63928004168003,"Approved","OW293"
"2023-04-09 13:00",8.62187399807631,"Approved","OW293"
"2023-04-09 14:00",8.61066795447259,"Approved","OW293"
"2023-04-09 15:00",8.60676191086887,"Approved","OW293"
"2023-04-09 16:00",8.60325586726515,"Approved","OW293"
"2023-04-09 17:00",8.59884982366143,"Approved","OW293"
"2023-04-09 18:00",8.60424378005771,"Approved","OW293"
"2023-04-09 19:00",8.60573773645399,"Approved","OW293"
"2023-04-09 20:00",8.61243169285027,"Approved","OW293"
"2023-04-09 21:00",8.63002564924655,"Approved","OW293"
"2023-04-09 22:00",8.61751960564283,"Approved","OW293"
"2023-04-09 23:00",8.60991356203911,"Approved","OW293"
"2023-04-10 00:00",8.6065075184354,"Approved","OW293"
"2023-04-10 01:00",8.60310147483168,"Approved","OW293"
"2023-04-10 02:00",8.59829543122796,"Approved","OW293"
"2023-04-10 03:00",8.59898938762424,"Approved","OW293"
"2023-04-10 04:00",8.59658334402052,"Approved","OW293"
"2023-04-10 05:00",8.5933773004168,"Approved","OW293"
"2023-04-10 06:00",8.59277125681308,"Approved","OW293"
"2023-04-10 07:00",8.61126521320936,"Approved","OW293"
"2023-04-10 08:00",8.60885916960564,"Approved","OW293"
"2023-04-10 09:00",8.60395312600192,"Approved","OW293"
"2023-04-10 10:00",8.60174708239821,"Approved","OW293"
"2023-04-10 11:00",8.60324103879449,"Approved","OW293"
"2023-04-10 12:00",8.60023499519077,"Approved","OW293"
"2023-04-10 13:00",8.60442895158705,"Approved","OW293"
"2023-04-10 14:00",8.60442290798333,"Approved","OW293"
"2023-04-10 15:00",8.59931686437961,"Approved","OW293"
"2023-04-10 16:00",8.59951082077589,"Approved","OW293"
"2023-04-10 17:00",8.59880477717217,"Approved","OW293"
"2023-04-10 18:00",8.59399873356845,"Approved","OW293"
"2023-04-10 19:00",8.59599268996473,"Approved","OW293"
"2023-04-10 20:00",8.62048664636101,"Approved","OW293"
"2023-04-10 21:00",8.61468060275729,"Approved","OW293"
"2023-04-10 22:00",8.60877455915358,"Approved","OW293"
"2023-04-10 23:00",8.60066851554985,"Approved","OW293"
"2023-04-11 00:00",8.59456247194614,"Approved","OW293"
"2023-04-11 01:00",8.58895642834242,"Approved","OW293"
"2023-04-11 02:00",8.5826503847387,"Approved","OW293"
"2023-04-11 03:00",8.58024434113498,"Approved","OW293"
"2023-04-11 04:00",8.59713829753126,"Approved","OW293"
"2023-04-11 05:00",8.58863225392754,"Approved","OW293"
"2023-04-11 06:00",8.58122621032382,"Approved","OW293"
"2023-04-11 07:00",8.5787201667201,"Approved","OW293"
"2023-04-11 08:00",8.58781412311638,"Approved","OW293"
"2023-04-11 09:00",8.59560807951267,"Approved","OW293"
"2023-04-11 10:00",8.58790203590894,"Approved","OW293"
"2023-04-11 11:00",8.58469599230523,"Approved","OW293"
"2023-04-11 12:00",8.59378994870151,"Approved","OW293"
"2023-04-11 13:00",8.58698390509779,"Approved","OW293"
"2023-04-11 14:00",8.58777786149407,"Approved","OW293"
"2023-04-11 15:00",8.58227181789035,"Approved","OW293"
"2023-04-11 16:00",8.57926577428663,"Approved","OW293"
"2023-04-11 17:00",8.58015973068291,"Approved","OW293"
"2023-04-11 18:00",8.57865368707919,"Approved","OW293"
"2023-04-11 19:00",8.57894764347547,"Approved","OW293"
"2023-04-11 20:00",8.58324159987176,"Approved","OW293"
"2023-04-11 21:00",8.57943555626803,"Approved","OW293"
"2023-04-11 22:00",8.58452951266431,"Approved","OW293"
"2023-04-11 23:00",8.5811234690606,"Approved","OW293"
"2023-04-12 00:00",8.57741742545688,"Approved","OW293"
"2023-04-12 01:00",8.58391138185316,"Approved","OW293"
"2023-04-12 02:00",8.57460533824944,"Approved","OW293"
"2023-04-12 03:00",8.57019929464572,"Approved","OW293"
"2023-04-12 04:00",8.574693251042,"Approved","OW293"
"2023-04-12 05:00",8.58078720743828,"Approved","OW293"
"2023-04-12 06:00",8.57418116383456,"Approved","OW293"
"2023-04-12 07:00",8.57047512023084,"Approved","OW293"
"2023-04-12 08:00",8.57026907662712,"Approved","OW293"
"2023-04-12 09:00",8.57866303302341,"Approved","OW293"
"2023-04-12 10:00",8.57985698941969,"Approved","OW293"
"2023-04-12 11:00",8.57415094581597,"Approved","OW293"
"2023-04-12 12:00",8.58004490221225,"Approved","OW293"
"2023-04-12 13:00",8.58733885860853,"Approved","OW293"
"2023-04-12 14:00",8.57693281500481,"Approved","OW293"
"2023-04-12 15:00",8.57002677140109,"Approved","OW293"
"2023-04-12 16:00",8.56512072779737,"Approved","OW293"
"2023-04-12 17:00",8.56161468419365,"Approved","OW293"
"2023-04-12 18:00",8.55850864058993,"Approved","OW293"
"2023-04-12 19:00",8.55820259698621,"Approved","OW293"
"2023-04-12 20:00",8.55579655338249,"Approved","OW293"
"2023-04-12 21:00",8.56819050977878,"Approved","OW293"
"2023-04-12 22:00",8.58008446617506,"Approved","OW293"
"2023-04-12 23:00",8.56717842257134,"Approved","OW293"
"2023-04-13 00:00",8.55927237896762,"Approved","OW293"
"2023-04-13 01:00",8.5545663353639,"Approved","OW293"
"2023-04-13 02:00",8.54886029176018,"Approved","OW293"
"2023-04-13 03:00",8.54575424815646,"Approved","OW293"
"2023-04-13 04:00",8.55284820455274,"Approved","OW293"
"2023-04-13 05:00",8.55124216094902,"Approved","OW293"
"2023-04-13 06:00",8.5471361173453,"Approved","OW293"
"2023-04-13 07:00",8.55233007374158,"Approved","OW293"
"2023-04-13 08:00",8.55062403013786,"Approved","OW293"
"2023-04-13 09:00",8.55101798653415,"Approved","OW293"
"2023-04-13 10:00",8.54691194293042,"Approved","OW293"
"2023-04-13 11:00",8.55350589932671,"Approved","OW293"
"2023-04-13 12:00",8.54809985572299,"Approved","OW293"
"2023-04-13 13:00",8.54859381211927,"Approved","OW293"
"2023-04-13 14:00",8.54718776851555,"Approved","OW293"
"2023-04-13 15:00",8.54548172491183,"Approved","OW293"
"2023-04-13 16:00",8.54237568130811,"Approved","OW293"
"2023-04-13 17:00",8.54576963770439,"Approved","OW293"
"2023-04-13 18:00",8.55476359410067,"Approved","OW293"
"2023-04-13 19:00",8.54955755049695,"Approved","OW293"
"2023-04-13 20:00",8.56745150689324,"Approved","OW293"
"2023-04-13 21:00",8.56344546328951,"Approved","OW293"
"2023-04-13 22:00",8.5542394196858,"Approved","OW293"
"2023-04-13 23:00",8.56263337608208,"Approved","OW293"
"2023-04-14 00:00",8.55352733247836,"Approved","OW293"
"2023-04-14 01:00",8.54732128887464,"Approved","OW293"
"2023-04-14 02:00",8.54351524527092,"Approved","OW293"
"2023-04-14 03:00",8.5407092016672,"Approved","OW293"
"2023-04-14 04:00",8.54100315806348,"Approved","OW293"
"2023-04-14 05:00",8.55329711445976,"Approved","OW293"
"2023-04-14 06:00",8.55829107085604,"Approved","OW293"
"2023-04-14 07:00",8.57648502725232,"Approved","OW293"
"2023-04-14 08:00",8.58057898364861,"Approved","OW293"
"2023-04-14 09:00",8.58127294004489,"Approved","OW293"
"2023-04-14 10:00",8.57096689644117,"Approved","OW293"
"2023-04-14 11:00",8.56816085283745,"Approved","OW293"
"2023-04-14 12:00",8.56965480923373,"Approved","OW293"
"2023-04-14 13:00",8.56494876563001,"Approved","OW293"
"2023-04-14 14:00",8.56344272202629,"Approved","OW293"
"2023-04-14 15:00",8.56573667842257,"Approved","OW293"
"2023-04-14 16:00",8.56833063481885,"Approved","OW293"
"2023-04-14 17:00",8.56602459121513,"Approved","OW293"
"2023-04-14 18:00",8.56081854761141,"Approved","OW293"
"2023-04-14 19:00",8.5606125040077,"Approved","OW293"
"2023-04-14 20:00",8.57290646040398,"Approved","OW293"
"2023-04-14 21:00",8.56510041680026,"Approved","OW293"
"2023-04-14 22:00",8.56499437319654,"Approved","OW293"
"2023-04-14 23:00",8.55818832959282,"Approved","OW293"
"2023-04-15 00:00",8.5535822859891,"Approved","OW293"
"2023-04-15 01:00",8.54657624238538,"Approved","OW293"
"2023-04-15 02:00",8.54357019878166,"Approved","OW293"
"2023-04-15 03:00",8.54136415517794,"Approved","OW293"
"2023-04-15 04:00",8.54795811157422,"Approved","OW293"
"2023-04-15 05:00",8.5545520679705,"Approved","OW293"
"2023-04-15 06:00",8.54904602436678,"Approved","OW293"
"2023-04-15 07:00",8.54923998076307,"Approved","OW293"
"2023-04-15 08:00",8.56253393715935,"Approved","OW293"
"2023-04-15 09:00",8.56312789355563,"Approved","OW293"
"2023-04-15 10:00",8.56272184995191,"Approved","OW293"
"2023-04-15 11:00",8.56471580634819,"Approved","OW293"
"2023-04-15 12:00",8.56940976274447,"Approved","OW293"
"2023-04-15 13:00",8.57270371914075,"Approved","OW293"
"2023-04-15 14:00",8.57219767553703,"Approved","OW293"
"2023-04-15 15:00",8.56849163193331,"Approved","OW293"
"2023-04-15 16:00",8.57578558832959,"Approved","OW293"
"2023-04-15 17:00",8.56787954472587,"Approved","OW293"
"2023-04-15 18:00",8.56327350112215,"Approved","OW293"
"2023-04-15 19:00",8.56056745751844,"Approved","OW293"